QPF
0.01 0.00 0.00 0.01 0.01 0.01 0.01 0.01 0.00 0.00 0.00 0.00 0.00 0.00 0.01 0.01 0.01 0.00 0.01 0.00 0.01 0.01 0.01 0.00 0.00 0.00 0.00 0.00 0.01 0.01 0.01 0.01 0.01 0.02 0.01 0.02 0.02 0.02 0.02 0.02 0.02 0.02 0.01
0.01 0.01 0.00 0.01 0.01 0.01 0.01 0.00 0.00 0.00 0.00 0.00 0.00 0.00 0.01 0.01 0.00 0.00 0.00 0.00 0.01 0.01 0.01 0.01 0.00 0.00 0.00 0.00 0.01 0.01 0.01 0.01 0.02 0.01 0.01 0.01 0.01 0.01 0.01 0.01 0.01 0.01 0.01
0.00 0.01 0.01 0.01 0.01 0.01 0.01 0.01 0.01 0.01 0.01 0.01 0.00 0.00 0.00 0.00 0.00 0.00 0.01 0.01 0.01 0.01 0.01 0.00 0.00 0.00 0.01 0.00 0.00 0.00 0.01 0.01 0.01 0.01 0.01 0.01 0.01 0.00 0.01 0.00 0.00 0.01 0.02
0.00 0.01 0.01 0.00 0.01 0.01 0.01 0.02 0.01 0.02 0.01 0.01 0.00 0.00 0.00 0.00 0.00 0.00 0.00 0.00 0.00 0.00 0.00 0.00 0.00 0.00 0.01 0.01 0.01 0.01 0.00 0.01 0.01 0.01 0.01 0.00 0.00 0.00 0.01 0.00 0.00 0.01 0.03
0.00 0.00 0.01 0.01 0.01 0.01 0.01 0.01 0.01 0.02 0.02 0.01 0.01 0.01 0.00 0.00 0.00 0.00 0.00 0.00 0.01 0.01 0.01 0.00 0.00 0.00 0.00 0.00 0.00 0.00 0.00 0.01 0.00 0.00 0.01 0.01 0.01 0.00 0.01 0.01 0.01 0.01 0.01
0.00 0.00 0.01 0.01 0.01 0.01 0.01 0.01 0.01 0.01 0.01 0.01 0.02 0.01 0.01 0.00 0.00 0.00 0.00 0.00 0.00 0.00 0.01 0.00 0.00 0.00 0.00 0.01 0.01 0.00 0.00 0.00 0.00 0.00 0.00 0.01 0.02 0.02 0.02 0.02 0.01 0.01 0.00
0.00 0.00 0.01 0.01 0.01 0.01 0.01 0.01 0.01 0.01 0.01 0.01 0.02 0.02 0.02 0.01 0.01 0.01 0.00 0.00 0.00 0.01 0.01 0.01 0.00 0.01 0.01 0.01 0.01 0.01 0.00 0.01 0.01 0.00 0.00 0.01 0.01 0.01 0.01 0.01 0.01 0.01 0.00
0.01 0.01 0.01 0.01 0.01 0.01 0.01 0.01 0.01 0.01 0.01 0.02 0.02 0.03 0.03 0.02 0.01 0.01 0.01 0.01 0.00 0.00 0.01 0.00 0.00 0.00 0.00 0.00 0.01 0.01 0.01 0.01 0.01 0.00 0.00 0.00 0.01 0.01 0.00 0.00 0.00 0.00 0.00
0.01 0.01 0.01 0.01 0.01 0.02 0.02 0.01 0.01 0.01 0.01 0.01 0.02 0.02 0.03 0.02 0.01 0.01 0.00 0.01 0.00 0.00 0.00 0.00 0.00 0.00 0.00 0.00 0.01 0.01 0.00 0.00 0.00 0.00 0.01 0.01 0.01 0.01 0.01 0.01 0.01 0.01 0.00
0.02 0.01 0.01 0.01 0.01 0.02 0.02 0.02 0.01 0.01 0.01 0.01 0.02 0.02 0.03 0.02 0.01 0.00 0.00 0.00 0.00 0.00 0.00 0.00 0.00 0.01 0.01 0.00 0.00 0.00 0.00 0.00 0.00 0.00 0.01 0.01 0.00 0.00 0.00 0.00 0.00 0.00 0.00
0.04 0.02 0.01 0.02 0.02 0.02 0.02 0.01 0.01 0.01 0.01 0.01 0.01 0.02 0.02 0.02 0.01 0.00 0.00 0.00 0.00 0.00 0.00 0.00 0.00 0.00 0.00 0.00 0.00 0.01 0.01 0.00 0.00 0.00 0.00 0.00 0.00 0.00 0.00 0.00 0.00 0.00 0.00
0.05 0.04 0.03 0.02 0.03 0.03 0.02 0.01 0.01 0.01 0.01 0.01 0.01 0.01 0.01 0.02 0.02 0.01 0.00 0.00 0.00 0.00 0.00 0.00 0.00 0.00 0.00 0.00 0.00 0.00 0.00 0.00 0.00 0.00 0.00 0.00 0.00 0.00 0.00 0.00 0.00 0.00 0.00
0.03 0.02 0.02 0.02 0.02 0.02 0.01 0.02 0.01 0.01 0.01 0.00 0.00 0.00 0.00 0.01 0.02 0.01 0.00 0.00 0.00 0.00 0.00 0.00 0.00 0.00 0.00 0.00 0.00 0.00 0.00 0.00 0.00 0.01 0.00 0.00 0.00 0.00 0.00 0.00 0.00 0.00 0.00
0.02 0.01 0.01 0.02 0.01 0.01 0.01 0.02 0.02 0.01 0.00 0.00 0.00 0.00 0.00 0.00 0.01 0.02 0.01 0.01 0.01 0.01 0.01 0.01 0.00 0.00 0.00 0.00 0.00 0.00 0.00 0.00 0.00 0.00 0.00 0.00 0.00 0.00 0.00 0.00 0.00 0.00 0.00
0.01 0.01 0.01 0.01 0.01 0.01 0.01 0.02 0.02 0.01 0.00 0.00 0.00 0.00 0.00 0.02 0.02 0.02 0.02 0.01 0.01 0.01 0.01 0.01 0.01 0.01 0.00 0.00 0.00 0.00 0.00 0.00 0.00 0.00 0.00 0.00 0.00 0.00 0.00 0.00 0.00 0.00 0.00
0.01 0.01 0.01 0.01 0.01 0.01 0.01 0.00 0.01 0.01 0.00 0.00 0.00 0.00 0.00 0.01 0.01 0.01 0.02 0.02 0.02 0.02 0.01 0.01 0.01 0.01 0.01 0.01 0.01 0.00 0.00 0.00 0.00 0.00 0.00 0.00 0.00 0.00 0.00 0.00 0.00 0.00 0.01
0.02 0.02 0.02 0.01 0.01 0.01 0.00 0.00 0.00 0.00 0.00 0.00 0.00 0.00 0.01 0.01 0.01 0.01 0.01 0.02 0.02 0.01 0.01 0.01 0.01 0.01 0.01 0.01 0.01 0.01 0.00 0.00 0.00 0.00 0.00 0.00 0.00 0.00 0.00 0.00 0.00 0.00 0.00
0.03 0.02 0.02 0.01 0.01 0.00 0.00 0.00 0.00 0.00 0.00 0.00 0.00 0.00 0.01 0.02 0.02 0.02 0.02 0.02 0.03 0.02 0.01 0.01 0.01 0.01 0.01 0.01 0.01 0.01 0.01 0.01 0.01 0.01 0.00 0.01 0.00 0.00 0.00 0.00 0.00 0.00 0.00
0.01 0.02 0.02 0.01 0.01 0.01 0.01 0.01 0.00 0.00 0.01 0.00 0.00 0.00 0.01 0.01 0.02 0.02 0.02 0.02 0.03 0.03 0.02 0.03 0.03 0.02 0.01 0.02 0.01 0.01 0.01 0.01 0.01 0.01 0.01 0.01 0.00 0.01 0.01 0.00 0.00 0.00 0.00
0.01 0.02 0.02 0.01 0.01 0.01 0.01 0.01 0.00 0.00 0.01 0.01 0.01 0.01 0.01 0.01 0.01 0.01 0.01 0.02 0.02 0.03 0.04 0.04 0.05 0.05 0.03 0.03 0.02 0.01 0.01 0.01 0.01 0.01 0.01 0.01 0.01 0.01 0.01 0.01 0.00 0.00 0.01
0.01 0.02 0.02 0.02 0.01 0.01 0.01 0.00 0.00 0.00 0.00 0.01 0.01 0.01 0.01 0.00 0.00 0.01 0.01 0.01 0.02 0.02 0.03 0.04 0.06 0.05 0.03 0.03 0.03 0.01 0.01 0.01 0.01 0.01 0.01 0.01 0.01 0.01 0.01 0.01 0.01 0.01 0.01
0.01 0.02 0.02 0.02 0.01 0.01 0.01 0.00 0.00 0.00 0.01 0.01 0.01 0.01 0.01 0.00 0.00 0.00 0.01 0.01 0.01 0.01 0.02 0.03 0.05 0.05 0.04 0.03 0.03 0.02 0.02 0.03 0.03 0.02 0.02 0.01 0.01 0.01 0.02 0.01 0.01 0.01 0.01
0.02 0.02 0.02 0.02 0.02 0.01 0.01 0.00 0.01 0.01 0.01 0.02 0.02 0.02 0.01 0.01 0.00 0.00 0.00 0.01 0.01 0.01 0.01 0.01 0.01 0.03 0.03 0.03 0.04 0.04 0.04 0.04 0.03 0.02 0.02 0.01 0.02 0.02 0.01 0.02 0.01 0.01 0.01
0.02 0.02 0.02 0.02 0.02 0.02 0.01 0.00 0.00 0.01 0.01 0.01 0.02 0.02 0.02 0.02 0.02 0.02 0.02 0.02 0.02 0.01 0.01 0.01 0.01 0.02 0.02 0.03 0.04 0.04 0.04 0.03 0.02 0.02 0.02 0.03 0.02 0.02 0.02 0.01 0.01 0.01 0.01
0.05 0.03 0.03 0.03 0.03 0.03 0.02 0.01 0.00 0.00 0.01 0.01 0.01 0.02 0.02 0.03 0.04 0.04 0.04 0.04 0.04 0.03 0.02 0.02 0.02 0.02 0.02 0.03 0.02 0.01 0.01 0.00 0.01 0.01 0.01 0.01 0.01 0.01 0.01 0.01 0.01 0.01 0.01
0.04 0.04 0.04 0.03 0.02 0.02 0.01 0.01 0.01 0.00 0.01 0.01 0.01 0.01 0.01 0.02 0.03 0.03 0.03 0.03 0.02 0.02 0.02 0.02 0.02 0.03 0.02 0.01 0.01 0.01 0.01 0.01 0.00 0.00 0.00 0.00 0.00 0.00 0.00 0.00 0.00 0.00 0.00
MSLP
1015.46 1015.45 1015.47 1015.52 1015.57 1015.64 1015.73 1015.86 1016.05 1016.29 1016.57 1016.88 1017.17 1017.41 1017.57 1017.61 1017.55 1017.41 1017.21 1017.01 1016.84 1016.75 1016.74 1016.81 1016.94 1017.09 1017.23 1017.32 1017.35 1017.33 1017.25 1017.16 1017.07 1017.01 1016.96 1016.91 1016.84 1016.72 1016.51 1016.20 1015.80 1015.33 1014.84
1015.57 1015.60 1015.65 1015.70 1015.73 1015.75 1015.80 1015.90 1016.07 1016.32 1016.64 1017.00 1017.35 1017.64 1017.83 1017.89 1017.82 1017.64 1017.39 1017.14 1016.93 1016.80 1016.78 1016.85 1016.99 1017.16 1017.31 1017.42 1017.46 1017.43 1017.36 1017.28 1017.21 1017.18 1017.19 1017.24 1017.29 1017.30 1017.25 1017.10 1016.86 1016.54 1016.16
1015.60 1015.68 1015.76 1015.81 1015.83 1015.84 1015.85 1015.93 1016.08 1016.34 1016.68 1017.08 1017.47 1017.81 1018.03 1018.12 1018.05 1017.86 1017.60 1017.32 1017.08 1016.94 1016.89 1016.95 1017.09 1017.25 1017.40 1017.50 1017.54 1017.51 1017.44 1017.37 1017.32 1017.34 1017.41 1017.54 1017.69 1017.83 1017.91 1017.92 1017.82 1017.62 1017.35
1015.51 1015.62 1015.73 1015.81 1015.85 1015.85 1015.86 1015.92 1016.07 1016.33 1016.69 1017.10 1017.53 1017.90 1018.16 1018.28 1018.24 1018.07 1017.82 1017.55 1017.32 1017.16 1017.11 1017.15 1017.27 1017.41 1017.54 1017.62 1017.64 1017.61 1017.54 1017.48 1017.46 1017.51 1017.63 1017.82 1018.05 1018.28 1018.47 1018.58 1018.59 1018.50 1018.32
1015.29 1015.43 1015.58 1015.69 1015.76 1015.79 1015.81 1015.88 1016.03 1016.28 1016.64 1017.06 1017.50 1017.90 1018.19 1018.35 1018.36 1018.24 1018.04 1017.81 1017.60 1017.46 1017.41 1017.44 1017.53 1017.64 1017.74 1017.80 1017.80 1017.76 1017.70 1017.65 1017.64 1017.72 1017.87 1018.09 1018.37 1018.65 1018.89 1019.07 1019.15 1019.13 1019.02
1014.96 1015.12 1015.31 1015.47 1015.58 1015.65 1015.71 1015.79 1015.95 1016.20 1016.54 1016.96 1017.39 1017.80 1018.12 1018.32 1018.38 1018.33 1018.20 1018.04 1017.89 1017.79 1017.76 1017.79 1017.86 1017.95 1018.02 1018.05 1018.03 1017.98 1017.92 1017.88 1017.89 1017.97 1018.13 1018.36 1018.64 1018.93 1019.19 1019.39 1019.50 1019.52 1019.45
1014.58 1014.75 1014.98 1015.19 1015.35 1015.47 1015.57 1015.68 1015.85 1016.09 1016.41 1016.80 1017.22 1017.61 1017.94 1018.18 1018.30 1018.33 1018.28 1018.21 1018.13 1018.09 1018.09 1018.14 1018.21 1018.28 1018.32 1018.33 1018.31 1018.25 1018.19 1018.16 1018.18 1018.26 1018.42 1018.63 1018.89 1019.15 1019.38 1019.57 1019.68 1019.72 1019.68
1014.21 1014.39 1014.64 1014.90 1015.11 1015.29 1015.44 1015.58 1015.76 1015.99 1016.28 1016.63 1017.01 1017.37 1017.70 1017.95 1018.12 1018.22 1018.26 1018.27 1018.29 1018.32 1018.37 1018.45 1018.52 1018.59 1018.63 1018.63 1018.59 1018.54 1018.50 1018.47 1018.50 1018.58 1018.72 1018.90 1019.11 1019.32 1019.51 1019.66 1019.75 1019.79 1019.77
1013.91 1014.09 1014.35 1014.64 1014.91 1015.13 1015.32 1015.50 1015.69 1015.91 1016.18 1016.48 1016.81 1017.13 1017.42 1017.67 1017.87 1018.02 1018.14 1018.24 1018.34 1018.45 1018.56 1018.67 1018.77 1018.84 1018.88 1018.89 1018.87 1018.83 1018.80 1018.79 1018.83 1018.90 1019.02 1019.17 1019.33 1019.48 1019.62 1019.73 1019.79 1019.83 1019.82
1013.73 1013.89 1014.15 1014.45 1014.74 1015.01 1015.24 1015.46 1015.67 1015.89 1016.13 1016.39 1016.66 1016.93 1017.19 1017.42 1017.62 1017.80 1017.97 1018.14 1018.31 1018.49 1018.66 1018.81 1018.94 1019.04 1019.09 1019.11 1019.11 1019.10 1019.09 1019.11 1019.15 1019.23 1019.33 1019.45 1019.56 1019.67 1019.76 1019.82 1019.87 1019.89 1019.91
1013.65 1013.79 1014.02 1014.31 1014.61 1014.91 1015.17 1015.43 1015.67 1015.90 1016.14 1016.37 1016.60 1016.82 1017.03 1017.23 1017.43 1017.62 1017.82 1018.03 1018.25 1018.48 1018.70 1018.89 1019.06 1019.18 1019.26 1019.31 1019.33 1019.35 1019.37 1019.41 1019.47 1019.56 1019.65 1019.74 1019.83 1019.89 1019.94 1019.98 1020.01 1020.04 1020.07
1013.66 1013.75 1013.94 1014.19 1014.48 1014.78 1015.08 1015.38 1015.66 1015.93 1016.18 1016.41 1016.63 1016.82 1017.00 1017.17 1017.35 1017.53 1017.74 1017.98 1018.23 1018.49 1018.74 1018.97 1019.16 1019.32 1019.42 1019.50 1019.55 1019.60 1019.65 1019.72 1019.80 1019.89 1019.99 1020.06 1020.12 1020.16 1020.19 1020.20 1020.23 1020.26 1020.31
1013.69 1013.72 1013.84 1014.04 1014.30 1014.60 1014.92 1015.26 1015.59 1015.92 1016.22 1016.48 1016.71 1016.91 1017.08 1017.23 1017.39 1017.57 1017.77 1018.01 1018.28 1018.56 1018.83 1019.08 1019.30 1019.48 1019.61 1019.72 1019.80 1019.88 1019.96 1020.05 1020.15 1020.25 1020.34 1020.41 1020.45 1020.47 1020.48 1020.49 1020.51 1020.55 1020.63
1013.70 1013.65 1013.69 1013.82 1014.03 1014.31 1014.65 1015.03 1015.43 1015.83 1016.20 1016.53 1016.81 1017.03 1017.22 1017.38 1017.54 1017.71 1017.91 1018.15 1018.42 1018.71 1018.99 1019.26 1019.50 1019.69 1019.85 1019.98 1020.08 1020.18 1020.29 1020.40 1020.51 1020.61 1020.70 1020.76 1020.80 1020.81 1020.81 1020.81 1020.83 1020.89 1020.97
1013.65 1013.51 1013.46 1013.50 1013.65 1013.90 1014.24 1014.66 1015.13 1015.61 1016.07 1016.49 1016.84 1017.13 1017.36 1017.56 1017.73 1017.92 1018.13 1018.37 1018.64 1018.93 1019.22 1019.50 1019.75 1019.96 1020.13 1020.28 1020.41 1020.53 1020.64 1020.76 1020.88 1020.99 1021.07 1021.13 1021.16 1021.16 1021.16 1021.16 1021.18 1021.24 1021.34
1013.51 1013.29 1013.14 1013.10 1013.18 1013.39 1013.72 1014.17 1014.69 1015.25 1015.80 1016.31 1016.76 1017.13 1017.43 1017.68 1017.90 1018.12 1018.35 1018.60 1018.88 1019.18 1019.48 1019.77 1020.03 1020.25 1020.45 1020.61 1020.76 1020.89 1021.02 1021.14 1021.26 1021.37 1021.45 1021.50 1021.52 1021.52 1021.52 1021.52 1021.54 1021.61 1021.73
1013.30 1013.02 1012.79 1012.66 1012.67 1012.83 1013.14 1013.59 1014.15 1014.76 1015.39 1015.98 1016.52 1016.98 1017.36 1017.69 1017.97 1018.23 1018.50 1018.79 1019.09 1019.40 1019.72 1020.02 1020.30 1020.54 1020.76 1020.94 1021.10 1021.25 1021.39 1021.52 1021.64 1021.75 1021.83 1021.89 1021.91 1021.91 1021.91 1021.91 1021.95 1022.03 1022.15
1013.06 1012.73 1012.45 1012.26 1012.20 1012.31 1012.58 1013.01 1013.57 1014.21 1014.88 1015.53 1016.14 1016.67 1017.14 1017.54 1017.89 1018.22 1018.55 1018.88 1019.21 1019.56 1019.90 1020.23 1020.53 1020.80 1021.03 1021.24 1021.42 1021.59 1021.75 1021.90 1022.04 1022.16 1022.25 1022.31 1022.35 1022.37 1022.38 1022.40 1022.44 1022.53 1022.66
1012.84 1012.50 1012.19 1011.95 1011.85 1011.90 1012.13 1012.52 1013.05 1013.67 1014.34 1015.02 1015.66 1016.26 1016.79 1017.26 1017.69 1018.09 1018.48 1018.87 1019.25 1019.64 1020.02 1020.38 1020.71 1021.01 1021.28 1021.52 1021.73 1021.93 1022.12 1022.30 1022.46 1022.60 1022.72 1022.82 1022.88 1022.93 1022.96 1023.00 1023.07 1023.16 1023.30
1012.67 1012.35 1012.05 1011.80 1011.67 1011.68 1011.85 1012.18 1012.66 1013.23 1013.88 1014.54 1015.19 1015.81 1016.39 1016.92 1017.41 1017.89 1018.35 1018.80 1019.25 1019.68 1020.11 1020.51 1020.87 1021.21 1021.51 1021.79 1022.04 1022.28 1022.51 1022.73 1022.94 1023.13 1023.30 1023.43 1023.54 1023.63 1023.70 1023.77 1023.86 1023.97 1024.11
1012.56 1012.31 1012.05 1011.83 1011.70 1011.68 1011.81 1012.08 1012.48 1012.99 1013.57 1014.19 1014.83 1015.45 1016.05 1016.62 1017.18 1017.71 1018.24 1018.76 1019.26 1019.75 1020.22 1020.66 1021.06 1021.44 1021.78 1022.10 1022.40 1022.68 1022.97 1023.24 1023.51 1023.76 1023.99 1024.18 1024.35 1024.49 1024.61 1024.72 1024.83 1024.95 1025.08
1012.52 1012.36 1012.18 1012.01 1011.91 1011.90 1011.99 1012.22 1012.55 1012.99 1013.50 1014.07 1014.66 1015.27 1015.88 1016.48 1017.08 1017.67 1018.25 1018.83 1019.39 1019.92 1020.43 1020.91 1021.35 1021.75 1022.13 1022.49 1022.84 1023.18 1023.52 1023.86 1024.19 1024.51 1024.80 1025.07 1025.31 1025.51 1025.68 1025.82 1025.95 1026.08 1026.20
1012.52 1012.47 1012.39 1012.31 1012.27 1012.28 1012.39 1012.58 1012.87 1013.25 1013.70 1014.21 1014.76 1015.35 1015.96 1016.58 1017.21 1017.85 1018.48 1019.10 1019.70 1020.27 1020.81 1021.31 1021.78 1022.21 1022.61 1023.01 1023.40 1023.79 1024.18 1024.58 1024.98 1025.37 1025.74 1026.08 1026.38 1026.64 1026.85 1027.03 1027.18 1027.30 1027.40
1012.54 1012.60 1012.64 1012.66 1012.71 1012.79 1012.92 1013.12 1013.39 1013.74 1014.15 1014.63 1015.15 1015.72 1016.33 1016.97 1017.63 1018.29 1018.96 1019.61 1020.24 1020.83 1021.39 1021.90 1022.38 1022.83 1023.25 1023.67 1024.09 1024.53 1024.97 1025.43 1025.89 1026.34 1026.77 1027.17 1027.52 1027.83 1028.07 1028.28 1028.43 1028.54 1028.60
1012.56 1012.73 1012.88 1013.02 1013.17 1013.33 1013.53 1013.77 1014.06 1014.41 1014.81 1015.28 1015.79 1016.37 1016.98 1017.63 1018.31 1019.00 1019.69 1020.36 1021.00 1021.60 1022.16 1022.68 1023.16 1023.61 1024.04 1024.48 1024.92 1025.38 1025.86 1026.36 1026.87 1027.36 1027.84 1028.28 1028.68 1029.01 1029.28 1029.49 1029.63 1029.71 1029.75
1012.58 1012.84 1013.09 1013.35 1013.61 1013.88 1014.16 1014.46 1014.80 1015.18 1015.61 1016.09 1016.62 1017.20 1017.83 1018.50 1019.20 1019.90 1020.60 1021.28 1021.93 1022.53 1023.09 1023.60 1024.07 1024.52 1024.95 1025.39 1025.85 1026.33 1026.83 1027.35 1027.89 1028.41 1028.92 1029.38 1029.79 1030.13 1030.40 1030.60 1030.72 1030.77 1030.76
Thickness
5730 5732 5732 5731 5729 5728 5726 5725 5723 5723 5722 5721 5718 5716 5714 5715 5716 5717 5717 5717 5716 5715 5713 5711 5710 5708 5706 5704 5703 5700 5698 5695 5696 5693 5690 5690 5692 5692 5692 5693 5694 5695 5696
5725 5727 5728 5727 5725 5724 5723 5722 5721 5721 5721 5720 5718 5716 5714 5713 5714 5714 5714 5714 5714 5713 5711 5710 5708 5707 5704 5702 5701 5699 5695 5694 5694 5691 5686 5682 5683 5686 5689 5689 5690 5691 5692
5723 5723 5724 5723 5722 5721 5721 5721 5720 5719 5719 5718 5716 5714 5712 5710 5710 5710 5711 5711 5711 5711 5710 5708 5707 5705 5703 5701 5700 5699 5696 5692 5692 5692 5688 5681 5677 5679 5683 5685 5686 5687 5687
5725 5723 5722 5721 5721 5721 5721 5720 5719 5718 5717 5716 5714 5711 5707 5704 5706 5707 5708 5709 5709 5708 5708 5707 5705 5704 5702 5700 5700 5698 5697 5694 5691 5691 5690 5688 5685 5679 5676 5679 5682 5683 5684
5725 5724 5723 5722 5722 5722 5720 5719 5718 5716 5715 5714 5713 5710 5707 5706 5706 5706 5706 5706 5706 5706 5706 5705 5704 5702 5701 5699 5698 5697 5696 5694 5692 5690 5689 5687 5685 5682 5677 5673 5675 5678 5680
5725 5724 5724 5722 5720 5720 5718 5717 5715 5714 5714 5713 5711 5710 5707 5705 5704 5703 5702 5703 5703 5703 5703 5703 5702 5701 5699 5698 5697 5696 5695 5693 5692 5690 5689 5686 5684 5681 5677 5673 5671 5672 5675
5723 5721 5719 5718 5717 5716 5716 5715 5714 5712 5712 5711 5710 5709 5707 5705 5704 5702 5701 5700 5700 5700 5700 5701 5700 5699 5698 5697 5696 5695 5693 5692 5691 5689 5688 5687 5685 5684 5680 5675 5671 5669 5671
5722 5721 5720 5718 5717 5716 5714 5713 5712 5711 5711 5710 5710 5709 5707 5706 5704 5703 5701 5700 5699 5700 5700 5699 5699 5698 5697 5696 5695 5693 5692 5691 5689 5688 5686 5685 5684 5683 5681 5677 5672 5667 5665
5721 5720 5719 5718 5717 5715 5714 5714 5712 5710 5710 5710 5710 5708 5707 5706 5704 5703 5702 5701 5700 5700 5699 5698 5697 5696 5695 5694 5693 5691 5689 5688 5687 5686 5684 5683 5682 5681 5680 5678 5675 5669 5662
5720 5719 5719 5718 5718 5717 5716 5714 5713 5711 5710 5710 5709 5709 5707 5706 5705 5703 5701 5700 5700 5699 5698 5696 5695 5694 5693 5692 5690 5688 5687 5686 5684 5683 5682 5680 5679 5678 5677 5676 5674 5671 5666
5718 5718 5718 5719 5717 5716 5714 5712 5711 5710 5709 5709 5708 5708 5706 5706 5704 5703 5702 5701 5699 5698 5696 5695 5694 5692 5691 5690 5688 5686 5685 5683 5681 5680 5679 5677 5677 5675 5674 5673 5671 5668 5665
5718 5718 5716 5716 5714 5712 5711 5711 5710 5709 5709 5708 5707 5706 5705 5704 5702 5701 5701 5700 5698 5697 5695 5694 5692 5690 5689 5687 5685 5683 5682 5680 5678 5677 5675 5674 5674 5672 5670 5668 5666 5664 5662
5716 5715 5713 5712 5711 5711 5710 5710 5710 5709 5709 5708 5706 5704 5703 5702 5701 5700 5699 5698 5697 5695 5694 5692 5690 5689 5687 5685 5683 5682 5680 5678 5676 5674 5673 5671 5669 5667 5665 5664 5662 5659 5658
5716 5713 5711 5710 5710 5710 5710 5710 5709 5709 5708 5706 5705 5702 5702 5701 5700 5699 5698 5696 5694 5692 5691 5689 5688 5687 5685 5683 5681 5679 5677 5675 5673 5672 5670 5668 5666 5664 5662 5660 5657 5655 5652
5713 5713 5711 5710 5709 5709 5709 5709 5708 5708 5707 5705 5703 5702 5702 5700 5699 5697 5695 5694 5692 5691 5689 5687 5685 5684 5683 5681 5679 5677 5674 5672 5669 5668 5667 5665 5664 5662 5660 5657 5653 5650 5646
5712 5712 5711 5710 5709 5708 5708 5707 5707 5707 5706 5704 5702 5701 5700 5698 5696 5694 5693 5691 5689 5687 5685 5683 5682 5680 5680 5678 5677 5674 5671 5668 5666 5663 5662 5661 5660 5658 5656 5654 5652 5648 5643
5710 5710 5711 5711 5710 5710 5710 5708 5708 5707 5705 5703 5701 5700 5698 5695 5694 5692 5689 5687 5685 5684 5682 5680 5678 5677 5676 5676 5673 5671 5668 5664 5661 5659 5657 5656 5655 5653 5650 5648 5646 5644 5641
5710 5709 5710 5711 5712 5712 5711 5710 5707 5705 5703 5701 5699 5698 5696 5693 5691 5689 5686 5684 5683 5680 5678 5676 5675 5673 5673 5672 5669 5667 5663 5660 5657 5654 5652 5650 5648 5647 5645 5642 5639 5636 5634
5710 5711 5712 5712 5711 5710 5710 5707 5704 5702 5700 5698 5697 5696 5694 5690 5688 5685 5683 5681 5679 5676 5674 5673 5671 5668 5667 5667 5665 5662 5657 5654 5651 5649 5647 5646 5643 5642 5639 5636 5632 5628 5626
5710 5710 5710 5709 5708 5709 5708 5704 5701 5699 5698 5697 5696 5694 5692 5688 5685 5683 5681 5679 5676 5673 5671 5668 5666 5664 5662 5662 5660 5657 5653 5648 5645 5643 5641 5640 5638 5636 5633 5629 5625 5620 5617
5708 5708 5708 5706 5707 5707 5705 5701 5699 5697 5698 5697 5694 5691 5689 5687 5684 5680 5678 5675 5672 5669 5665 5662 5660 5659 5657 5657 5655 5652 5648 5644 5640 5637 5634 5633 5631 5629 5626 5622 5618 5614 5611
5703 5704 5703 5702 5703 5704 5701 5698 5696 5698 5696 5693 5690 5688 5686 5684 5681 5677 5674 5671 5667 5663 5659 5656 5654 5652 5651 5650 5649 5647 5644 5640 5635 5631 5628 5626 5624 5621 5618 5614 5610 5607 5603
5698 5698 5698 5697 5698 5699 5698 5695 5695 5694 5692 5688 5685 5683 5681 5678 5676 5673 5669 5665 5662 5658 5654 5651 5648 5645 5644 5643 5642 5640 5637 5634 5629 5625 5622 5619 5616 5613 5609 5606 5602 5598 5593
5692 5693 5692 5691 5691 5693 5694 5693 5692 5690 5687 5683 5680 5678 5674 5671 5669 5667 5664 5660 5656 5653 5650 5646 5643 5640 5638 5636 5634 5632 5629 5626 5622 5618 5615 5612 5608 5605 5601 5597 5593 5589 5585
5686 5687 5686 5685 5686 5687 5687 5688 5687 5685 5681 5677 5674 5671 5669 5666 5662 5659 5657 5655 5653 5651 5647 5643 5640 5636 5632 5631 5629 5626 5622 5619 5615 5610 5606 5602 5598 5594 5591 5587 5583 5579 5575
5678 5679 5679 5679 5680 5681 5680 5680 5680 5679 5675 5671 5668 5665 5662 5659 5656 5652 5648 5647 5646 5645 5643 5640 5636 5632 5629 5626 5622 5619 5616 5612 5608 5603 5598 5593 5590 5586 5582 5578 5574 5570 5566